Temp_Advection
nan nan nan nan nan nan nan nan nan nan nan nan nan nan nan nan nan nan nan nan nan nan nan nan nan nan nan nan nan nan nan nan nan nan nan nan nan nan nan nan nan nan nan nan nan
nan -0 -0 -0 -0 -0 -0 -0 -0 -0 -0 -0 -0 -0 -0 -0 -1 -1 0 0 0 -0 -0 -0 -1 -0 -0 -1 -1 -0 -0 -1 -0 -1 -0 -0 -0 -7 -0 0 -0 -1 -2 -1 nan
nan -0 -0 -0 -0 -0 -0 -0 -0 -0 -0 -0 -0 -0 -0 -0 -0 0 -0 0 0 -0 -0 -0 -1 -0 -0 -1 -1 0 -1 -1 0 -2 -2 -2 -4 -6 -0 -1 -1 -0 -1 -1 nan
nan -0 -0 -0 -0 -0 -0 -0 -0 -0 -0 -0 -0 -0 -0 -1 -0 -0 -0 0 0 -0 0 -0 -1 -0 -0 -1 -0 -0 -1 -0 -0 -1 -2 -2 -1 -0 -1 -0 -0 0 -0 -1 nan
nan -0 -0 -0 -0 -0 -0 -0 -0 -0 -0 -0 -0 -0 0 -0 -2 -0 -0 -0 0 0 -0 -1 -0 -0 -1 -0 -0 -0 -0 0 -0 0 -0 -1 -0 0 -0 -1 -1 1 -0 -0 nan
nan -0 -0 -0 -0 -0 -0 -0 -0 -0 -0 -0 -0 -0 -0 -2 -0 0 0 0 0 -0 -0 -1 -0 -0 -0 -0 -0 -0 0 0 0 0 0 -1 -0 -0 0 -0 -3 -2 -1 -0 nan
nan -0 -0 -0 -0 -0 -0 -0 -0 -0 -0 -0 -0 0 -0 -4 -0 0 -0 -0 -0 -0 -0 -0 -0 -0 -0 -0 -0 -0 0 0 0 0 0 -0 0 -0 -0 -0 -1 -1 -1 -0 nan
nan -1 -0 -0 -0 -0 -0 -0 -0 -0 -0 -0 -0 -0 -1 -1 -0 -0 -0 -0 -0 -0 -0 -0 -0 -0 -0 -1 -0 -0 0 0 0 -0 -0 -1 -0 0 -0 -0 -1 -1 -0 -0 nan
nan -0 -0 -0 -0 -0 -0 -0 0 -0 -0 -0 0 -0 -1 -0 -0 -0 -0 -0 -0 0 -0 0 -0 -0 -0 -0 -0 0 0 -0 -1 -0 -0 -1 -0 -0 -0 -0 -1 -1 -1 -1 nan
nan -0 -0 -0 -0 -0 -0 -0 -0 -0 -0 -0 -0 -0 -2 -1 -0 -0 -0 0 0 -0 -0 -0 -0 -0 -0 0 -0 -0 -1 -1 -1 0 0 -0 -1 -0 -0 -0 -0 -0 -0 -1 nan
nan -0 -0 -0 -0 -0 -0 -0 0 0 -1 -2 -1 -1 -0 0 0 -0 -0 -0 -0 -0 0 0 0 -0 -0 -0 -1 -1 -0 -0 -1 -0 0 -0 -0 -0 -0 -0 -0 -0 -0 -0 nan
nan -0 -0 -0 -0 -0 0 -1 0 0 -0 -1 -1 -1 -0 -0 -0 -1 -0 -0 -0 1 -1 -1 -0 -0 -0 -0 -0 0 -0 -1 1 0 0 -0 0 0 -0 -0 -0 -0 -0 -0 nan
nan -0 -0 -0 -0 -0 -1 -1 -0 -1 -1 -1 -1 -1 -0 -0 -1 -0 -0 -0 0 -0 0 -0 0 -1 -0 -0 -0 0 -0 -0 -0 -0 0 0 1 0 0 0 -0 -0 -1 -1 nan
nan -0 -0 -0 -0 -0 -1 -0 0 -0 -1 -1 -1 -0 -0 -0 -1 -1 -0 -0 0 0 -1 0 -0 -1 -1 -0 0 -0 0 -0 -1 0 0 -1 -1 1 0 0 -0 0 -0 -0 nan
nan -0 0 0 -0 -0 0 0 0 -0 -1 -0 -0 -0 -0 -1 -0 -0 -0 0 -0 -0 -0 0 -1 -2 -1 0 0 -0 -0 -1 -1 0 -0 -0 -0 -0 0 1 1 0 0 0 nan
nan -0 0 -0 -1 -0 0 0 -0 -0 -1 0 0 -0 -0 -0 -0 -0 0 0 0 0 0 -1 -2 -2 -0 0 0 -1 -0 -0 0 1 0 -1 -1 -1 1 0 -1 -0 1 1 nan
nan -0 -0 -0 -0 -0 0 0 -0 -1 -2 -0 -0 -0 0 -0 -0 0 0 0 0 -0 -0 -0 -1 -0 -0 0 1 0 1 1 -1 -1 -1 -1 -0 0 -1 -2 -1 0 0 1 nan
nan 0 0 -1 0 0 0 -0 -1 -1 -2 -0 -0 0 0 -0 -0 0 0 -0 -1 -0 0 1 0 0 0 1 -0 -1 1 -0 0 -1 -1 -0 -0 0 -0 -0 -0 -0 0 0 nan
nan 1 -0 -1 0 0 -0 -1 -1 -2 -1 0 0 0 -0 -0 0 0 0 -1 -0 0 1 -0 -0 -2 -1 0 -1 -0 -0 -0 1 -0 -0 -1 -1 0 0 -0 0 -0 0 0 nan
nan 0 -2 -0 1 -0 -1 -2 -2 -3 -1 0 0 -0 -0 -0 0 0 -0 -0 -1 0 -1 -0 -0 -2 -1 -0 -0 -0 -0 0 0 0 -0 -1 0 -0 0 0 0 -0 -0 -0 nan
nan -1 -1 0 -0 -1 -2 -2 -2 -2 -0 0 -0 -0 -0 -0 -0 0 -0 -0 -0 0 0 -1 -1 -1 -0 -0 -0 -0 0 -0 0 0 -0 -0 0 0 -0 -0 -0 0 -0 -0 nan
nan -1 0 -2 -1 -2 -1 -2 -2 -1 -1 -0 -0 -0 -0 -0 0 -0 -0 0 0 0 0 -1 0 -0 -0 0 0 0 0 0 -0 -0 -0 -0 -1 0 -0 -0 -0 0 -0 -0 nan
nan -0 2 -0 -1 -1 -1 -1 -1 -1 -0 -0 -0 -1 -0 1 -0 -0 0 -0 0 0 0 0 0 0 -1 0 0 0 -0 0 0 -0 0 0 -1 0 -0 0 -0 0 0 -0 nan
nan -0 -0 -0 -2 -1 -1 -1 -1 -2 -1 -0 -0 -0 0 0 0 0 0 -0 0 0 -0 -0 -0 0 -0 -1 -0 0 -0 -0 1 -0 -0 -1 -2 -0 -0 -0 -0 -0 0 0 nan
nan -0 -1 -1 -1 -1 -0 -0 -1 -1 -1 0 0 0 0 0 0 0 0 -0 -0 0 -0 -0 0 -0 -0 -0 0 0 -0 0 0 0 -0 -1 -1 -1 0 -0 -0 0 0 0 nan
nan -0 -1 -1 -1 -0 -0 -1 -1 -1 -0 -0 -0 -0 0 -0 -0 0 0 -1 -0 -0 -0 0 0 -0 -0 -1 -0 -0 -1 -0 -0 -0 0 0 -1 -1 0 -0 -0 -0 -0 0 nan
nan nan nan nan nan nan nan nan nan nan nan nan nan nan nan nan nan nan nan nan nan nan nan nan nan nan nan nan nan nan nan nan nan nan nan nan nan nan nan nan nan nan nan nan nan
Wind_Speed
17 17 17 17 18 19 21 22 22 23 24 25 24 22 20 18 16 16 19 9 8 9 12 6 10 11 13 17 18 20 12 14 19 10 5 25 19 34 7 8 7 8 13 20 19
17 17 17 18 18 19 20 21 23 22 23 23 22 19 18 18 19 19 13 9 9 12 10 10 11 11 15 19 20 13 12 20 3 11 6 9 16 41 4 4 10 14 21 22 20
16 17 18 18 18 19 20 21 22 22 22 22 19 17 15 16 15 2 4 4 7 12 11 13 12 12 14 19 18 17 15 16 3 18 19 13 27 39 4 8 11 8 22 22 21
16 17 17 18 18 19 20 21 22 21 20 19 16 14 13 11 1 6 7 4 4 8 11 11 12 14 14 16 16 14 18 21 4 15 17 14 19 11 11 3 17 7 20 23 20
17 16 17 17 17 18 20 21 21 20 18 16 14 13 10 7 14 5 6 3 5 9 10 11 10 12 13 14 13 14 17 8 7 5 8 11 8 8 14 9 25 23 22 22 17
18 17 17 16 17 18 19 20 21 19 17 14 11 12 9 12 3 4 5 3 6 11 9 11 9 10 14 17 12 10 16 4 3 4 3 9 7 13 6 6 26 20 21 19 18
18 17 17 16 17 17 18 19 19 17 14 12 9 10 10 22 5 1 6 3 7 10 11 9 10 9 7 11 13 5 7 4 2 3 3 13 9 2 6 11 13 16 18 17 18
18 17 16 15 16 17 17 17 17 14 11 9 7 7 10 6 9 11 10 10 10 12 13 10 6 11 12 15 8 8 6 5 6 12 11 13 9 8 7 15 17 19 19 19 19
18 17 16 15 15 16 16 16 14 12 10 6 3 5 11 5 12 12 11 12 6 8 9 8 7 12 12 10 9 1 6 9 15 14 6 11 14 14 13 15 19 20 21 21 22
18 17 15 15 15 14 14 13 12 10 8 6 7 9 14 10 10 10 9 8 7 8 7 8 8 7 9 8 5 8 14 16 12 13 11 16 14 14 18 19 19 20 20 22 23
18 17 15 15 14 13 11 7 8 3 12 12 9 12 5 2 5 10 11 9 10 10 11 13 6 8 6 5 13 11 15 15 11 13 8 8 10 12 18 16 21 20 21 20 21
19 16 15 15 14 13 11 7 2 8 11 20 21 20 16 8 9 15 14 12 11 9 12 10 5 6 14 17 19 16 1 10 13 9 10 13 11 14 14 17 19 20 23 23 23
20 16 14 14 14 16 16 18 9 15 8 17 25 23 17 13 16 17 13 16 13 4 9 15 3 13 12 16 12 8 12 7 9 7 11 11 13 15 15 18 21 25 26 28 28
21 17 15 11 10 11 14 7 10 7 5 10 18 16 17 11 16 23 22 18 5 10 9 4 11 16 17 11 5 2 11 8 16 15 7 9 9 17 13 13 16 23 24 25 26
22 19 17 12 7 8 7 2 5 3 4 11 17 9 16 18 8 20 8 15 6 12 4 4 14 18 20 7 5 3 9 16 16 6 4 7 6 12 12 18 16 13 16 19 24
22 21 17 19 20 12 2 7 5 5 7 6 13 13 18 17 20 10 18 15 11 1 6 10 18 21 2 2 2 13 10 15 9 9 7 16 11 14 13 11 19 13 19 19 17
24 23 22 17 10 9 8 6 5 7 10 11 18 16 17 15 16 12 15 17 12 8 8 8 16 4 5 6 6 8 10 3 7 7 4 9 5 5 19 19 17 20 18 18 19
24 24 24 25 13 3 10 6 11 11 21 3 15 15 20 17 15 14 13 16 18 18 9 11 9 13 8 7 4 15 7 3 2 5 7 5 5 5 12 11 8 16 15 16 16
26 26 26 28 22 10 16 11 11 13 21 8 13 14 18 18 10 14 15 16 18 18 11 6 3 13 10 3 10 9 4 4 7 3 2 6 17 7 8 8 8 14 17 18 19
32 22 26 27 25 14 10 18 15 25 12 12 15 15 17 18 14 11 14 13 17 18 13 6 3 14 16 6 4 5 6 4 2 2 4 8 10 9 6 8 6 11 16 18 19
31 14 16 27 27 16 15 18 22 26 21 10 14 15 19 14 15 13 10 12 18 9 7 7 11 8 6 8 8 6 7 5 6 4 1 4 3 7 6 8 6 9 17 20 21
22 8 24 38 16 18 15 22 29 19 18 12 10 16 15 14 13 14 14 13 9 9 9 13 5 4 12 3 5 9 11 9 3 5 2 1 6 4 5 6 6 9 15 20 23
17 18 33 36 12 14 19 25 28 23 18 14 15 13 12 13 10 14 10 7 9 8 3 4 4 5 9 6 8 8 12 9 8 2 4 3 3 5 4 2 5 5 12 17 20
15 9 13 31 27 21 23 22 26 32 20 16 15 15 12 14 9 9 9 3 4 1 3 4 5 9 6 11 5 6 11 11 10 3 4 9 14 9 10 10 8 11 7 10 18
16 11 13 12 20 19 21 21 25 23 23 21 16 17 12 8 11 11 11 7 4 3 2 3 8 12 14 14 7 9 12 8 11 10 10 11 15 12 11 7 7 4 9 10 13
17 11 26 10 27 21 20 27 27 24 20 20 16 18 13 11 12 10 11 8 7 7 8 5 6 4 8 9 13 11 15 15 15 15 14 14 14 11 11 9 11 9 9 10 9
33 27 26 21 21 19 21 25 25 19 22 24 18 14 16 7 7 12 3 16 8 10 9 7 3 2 2 6 7 5 10 16 16 15 13 11 10 8 12 8 6 4 8 6 7
Wind_Direction
282 285 288 292 297 304 311 315 317 319 320 319 321 322 315 311 303 288 281 255 271 260 242 250 248 241 241 255 250 246 263 265 271 294 50 41 1 301 199 152 96 98 93 136 162
283 284 287 291 297 303 309 313 315 318 318 319 321 321 314 309 302 287 304 273 247 241 238 235 238 235 246 248 249 236 245 256 108 127 157 123 210 265 212 170 130 106 110 126 138
284 282 287 292 298 305 309 312 313 316 317 319 322 319 309 311 318 21 352 307 265 231 237 226 265 269 250 247 241 229 250 273 310 141 159 171 216 241 296 43 355 118 134 137 140
285 280 285 293 299 305 309 310 312 315 316 316 318 310 305 307 292 11 351 299 241 199 196 257 257 256 250 259 238 248 250 261 64 158 165 184 205 67 46 124 319 214 146 148 153
291 279 283 290 296 302 306 308 311 314 314 315 316 308 311 282 266 267 318 293 211 196 213 238 238 243 248 253 243 238 259 234 32 273 121 101 19 243 180 160 187 232 158 146 156
296 280 281 288 296 301 305 308 311 312 313 312 313 302 302 266 328 270 271 276 207 200 219 240 245 262 294 296 240 222 253 120 281 267 152 107 76 273 127 86 122 122 134 149 157
293 282 281 288 293 298 303 308 310 309 310 308 311 300 279 247 226 323 227 247 216 218 240 235 258 276 247 279 272 300 270 90 250 196 329 104 229 146 91 104 114 132 139 146 159
288 285 279 283 289 297 302 307 306 304 305 304 305 298 263 253 254 249 245 251 253 242 236 267 275 261 279 301 283 242 186 181 217 239 205 106 254 135 186 132 144 149 152 155 151
282 284 277 280 286 295 301 305 301 300 297 290 299 308 268 288 233 232 231 245 219 233 222 245 247 243 246 243 247 271 189 180 243 207 168 116 259 152 162 158 153 158 158 163 163
275 282 277 276 283 293 300 303 298 290 279 265 237 274 253 233 210 231 218 223 215 196 199 229 213 236 218 235 174 210 252 201 214 174 206 179 189 160 175 167 160 162 168 172 168
266 274 272 272 280 287 291 306 308 274 218 226 232 222 159 284 242 225 218 206 231 197 221 192 204 215 255 180 228 224 239 211 218 156 206 194 162 171 177 184 163 167 168 169 167
256 265 266 265 275 274 262 222 355 345 293 250 246 251 265 286 278 217 201 211 203 243 65 289 193 253 214 217 248 277 70 315 120 158 201 213 217 175 188 192 177 175 173 179 180
247 253 255 261 272 270 264 247 264 333 271 274 222 230 236 228 241 225 198 226 237 162 296 305 135 289 201 228 230 282 123 306 352 237 213 244 224 169 189 200 202 190 188 184 185
240 244 244 250 285 292 262 279 210 294 279 242 189 222 221 225 233 237 212 230 142 251 119 282 276 266 279 240 274 34 338 201 227 214 228 14 284 179 172 205 210 206 194 189 191
232 237 235 219 234 214 11 207 202 187 275 178 180 188 191 204 171 224 211 235 171 243 145 299 306 278 264 102 307 174 236 265 261 257 112 345 317 224 212 215 218 203 205 200 189
228 228 228 220 223 195 148 145 159 229 236 164 154 197 201 202 240 216 197 223 252 173 205 176 248 257 250 84 338 175 212 244 262 284 192 199 193 155 195 221 266 218 204 211 185
225 223 221 214 214 233 183 170 211 231 239 182 172 189 211 201 221 237 178 208 227 209 221 175 229 236 175 203 198 224 264 272 25 332 233 265 252 332 194 212 190 196 181 196 194
221 219 221 216 182 204 190 203 227 204 243 185 187 196 209 208 208 207 223 210 212 240 227 207 218 220 204 252 80 318 269 107 327 212 313 10 245 106 105 126 123 153 176 175 171
218 215 226 214 194 201 207 213 202 247 204 220 194 199 208 217 202 201 221 216 217 223 254 335 64 342 322 251 156 228 265 149 271 108 313 271 282 112 112 111 142 153 169 170 177
206 205 224 205 192 193 219 225 226 237 278 188 211 204 211 214 188 205 207 232 225 221 146 157 21 277 253 251 213 265 345 283 207 281 270 302 275 115 162 136 155 161 173 176 184
191 194 232 198 188 208 219 215 233 236 251 269 218 218 225 207 189 228 216 217 219 177 206 148 145 246 230 216 250 177 242 231 284 277 69 315 75 31 87 129 159 188 180 183 190
179 211 195 179 180 215 221 214 229 236 244 249 262 233 222 219 198 219 210 213 208 227 199 232 297 184 210 116 356 314 297 226 176 269 170 341 282 87 104 112 158 204 194 192 196
185 186 175 183 201 206 211 220 233 229 240 209 244 246 225 234 216 201 226 32 68 197 228 221 238 275 287 215 208 235 250 250 278 122 243 169 256 147 150 172 171 239 208 200 202
186 167 176 202 215 199 198 211 221 234 240 204 230 226 230 228 198 200 217 125 137 153 71 326 241 250 240 263 334 226 235 248 227 159 240 258 275 256 211 202 211 183 248 238 205
202 192 181 192 209 205 200 207 217 212 222 240 220 223 211 222 204 213 214 118 145 116 168 244 246 261 265 276 293 292 294 254 250 247 229 249 261 271 296 23 342 192 199 221 259
201 195 175 193 193 212 208 216 215 206 204 230 212 217 203 214 219 194 215 158 179 171 207 203 243 288 293 296 289 273 276 277 273 276 278 270 271 279 310 40 360 4 322 287 264
211 207 178 212 186 195 212 206 223 209 209 219 212 196 215 204 155 67 138 177 203 168 198 190 232 136 243 350 350 323 250 252 262 267 270 268 280 311 315 327 35 335 309 303 301
Height
1531 1531 1531 1530 1529 1528 1526 1524 1522 1518 1515 1512 1509 1507 1506 1503 1500 1498 1493 1496 1496 1497 1497 1498 1499 1499 1499 1498 1495 1492 1491 1487 1476 1472 1494 1489 1498 1498 1494 1495 1497 1494 1496 1502 1507
1529 1529 1529 1528 1527 1526 1524 1522 1519 1516 1513 1510 1507 1505 1504 1501 1497 1492 1492 1492 1493 1495 1495 1497 1498 1497 1497 1495 1492 1489 1489 1480 1475 1487 1495 1492 1510 1502 1492 1492 1497 1499 1504 1507 1509
1526 1526 1526 1526 1525 1524 1522 1520 1517 1514 1511 1508 1505 1505 1504 1500 1496 1491 1490 1491 1491 1493 1494 1496 1496 1494 1493 1491 1487 1485 1485 1474 1475 1483 1485 1493 1498 1495 1492 1497 1499 1501 1506 1508 1512
1523 1523 1523 1523 1522 1522 1520 1518 1515 1512 1509 1507 1504 1503 1503 1501 1495 1491 1490 1490 1491 1492 1493 1494 1495 1494 1492 1486 1484 1484 1479 1479 1477 1484 1485 1486 1488 1495 1496 1502 1500 1503 1506 1509 1513
1521 1521 1520 1520 1520 1519 1518 1516 1513 1511 1507 1506 1504 1502 1502 1502 1494 1491 1491 1490 1490 1491 1493 1494 1493 1491 1488 1482 1481 1481 1477 1475 1476 1480 1481 1486 1489 1499 1495 1490 1498 1502 1510 1509 1514
1518 1518 1518 1518 1518 1516 1515 1513 1511 1509 1507 1504 1502 1502 1502 1501 1492 1492 1491 1490 1490 1491 1493 1492 1491 1489 1485 1481 1478 1477 1476 1477 1479 1481 1482 1485 1498 1498 1491 1491 1496 1501 1506 1511 1515
1516 1516 1516 1516 1515 1514 1512 1510 1509 1507 1505 1504 1501 1502 1501 1492 1490 1491 1492 1492 1492 1492 1492 1491 1490 1490 1487 1482 1479 1480 1479 1480 1481 1482 1485 1489 1492 1490 1490 1495 1498 1503 1507 1511 1515
1513 1513 1513 1513 1513 1512 1510 1508 1507 1505 1503 1503 1501 1501 1496 1489 1490 1489 1491 1491 1490 1491 1491 1489 1489 1491 1490 1487 1482 1480 1479 1488 1482 1480 1481 1489 1501 1489 1491 1496 1502 1507 1510 1512 1516
1511 1510 1510 1511 1510 1510 1508 1506 1505 1503 1502 1501 1502 1502 1493 1488 1487 1486 1488 1488 1487 1488 1489 1489 1490 1490 1490 1490 1486 1480 1494 1492 1485 1475 1477 1485 1497 1489 1492 1494 1499 1504 1509 1512 1516
1507 1508 1507 1508 1508 1508 1506 1504 1503 1501 1501 1500 1500 1505 1488 1484 1483 1484 1485 1486 1487 1487 1488 1489 1488 1487 1486 1486 1500 1500 1489 1481 1480 1473 1473 1481 1484 1485 1490 1492 1497 1502 1507 1511 1515
1503 1504 1504 1505 1505 1505 1505 1505 1504 1501 1499 1493 1489 1485 1480 1483 1483 1484 1483 1485 1485 1485 1485 1485 1487 1488 1482 1482 1482 1478 1478 1475 1466 1467 1475 1477 1478 1482 1487 1489 1493 1499 1504 1508 1512
1499 1501 1502 1502 1503 1503 1503 1503 1502 1503 1494 1487 1485 1485 1483 1484 1482 1480 1482 1483 1482 1482 1487 1489 1488 1481 1486 1481 1477 1471 1476 1474 1466 1470 1475 1476 1476 1478 1481 1484 1489 1495 1500 1506 1511
1495 1497 1498 1500 1500 1501 1500 1498 1500 1501 1494 1478 1477 1480 1482 1482 1480 1477 1479 1478 1476 1482 1484 1492 1484 1483 1476 1476 1476 1472 1489 1484 1486 1475 1471 1472 1477 1476 1480 1485 1488 1490 1494 1499 1505
1490 1493 1495 1498 1502 1499 1497 1495 1497 1502 1495 1470 1471 1475 1477 1477 1476 1473 1474 1476 1474 1479 1486 1492 1488 1485 1476 1474 1469 1484 1484 1479 1479 1480 1490 1483 1496 1473 1477 1481 1481 1483 1487 1492 1498
1484 1490 1492 1495 1496 1499 1500 1497 1499 1503 1501 1453 1464 1468 1471 1474 1467 1470 1472 1474 1477 1478 1480 1496 1493 1484 1477 1472 1472 1486 1480 1480 1471 1473 1485 1492 1504 1493 1474 1476 1474 1479 1485 1489 1494
1480 1485 1489 1490 1492 1494 1495 1498 1500 1502 1491 1458 1458 1462 1466 1469 1467 1465 1470 1475 1473 1475 1480 1491 1488 1479 1467 1470 1471 1476 1479 1473 1471 1475 1500 1496 1500 1486 1486 1484 1488 1483 1485 1489 1492
1476 1480 1484 1487 1491 1495 1497 1498 1499 1490 1455 1454 1457 1460 1463 1464 1465 1464 1468 1473 1475 1482 1479 1478 1476 1469 1470 1472 1471 1473 1476 1494 1534 1529 1494 1460 1472 1461 1472 1469 1467 1476 1483 1489 1493
1472 1476 1479 1483 1487 1492 1495 1499 1489 1459 1457 1442 1450 1457 1463 1458 1461 1462 1464 1470 1468 1467 1469 1478 1487 1469 1468 1470 1486 1484 1476 1511 1521 1532 1489 1468 1476 1464 1462 1466 1470 1475 1482 1488 1493
1467 1470 1473 1477 1483 1489 1492 1489 1468 1452 1446 1445 1449 1457 1459 1454 1456 1460 1463 1463 1462 1463 1474 1486 1488 1481 1469 1468 1474 1478 1480 1474 1485 1491 1498 1480 1464 1462 1464 1468 1471 1476 1482 1488 1494
1458 1466 1466 1474 1481 1486 1485 1472 1457 1447 1440 1441 1451 1451 1459 1454 1457 1456 1461 1457 1458 1457 1464 1482 1503 1490 1475 1473 1470 1473 1470 1486 1482 1504 1506 1476 1465 1472 1471 1470 1472 1476 1482 1488 1493
1457 1462 1459 1468 1478 1480 1463 1460 1455 1446 1443 1443 1444 1448 1450 1450 1450 1454 1456 1452 1454 1456 1461 1470 1493 1497 1476 1474 1470 1475 1478 1475 1475 1478 1499 1502 1482 1463 1466 1466 1473 1476 1480 1485 1490
1448 1452 1449 1458 1470 1464 1456 1452 1452 1445 1444 1443 1442 1441 1444 1443 1448 1452 1454 1449 1452 1457 1464 1463 1464 1475 1472 1459 1463 1466 1469 1469 1490 1494 1487 1494 1490 1465 1467 1468 1472 1475 1477 1481 1486
1437 1445 1447 1449 1450 1447 1454 1451 1447 1445 1443 1443 1444 1440 1438 1443 1449 1446 1446 1455 1454 1457 1461 1461 1468 1483 1475 1467 1463 1469 1467 1467 1468 1475 1490 1506 1489 1465 1468 1469 1470 1472 1474 1477 1481
1432 1432 1440 1444 1440 1441 1445 1442 1443 1439 1437 1438 1441 1439 1438 1442 1439 1448 1448 1460 1461 1461 1465 1465 1465 1472 1484 1472 1463 1466 1467 1464 1468 1491 1490 1489 1477 1463 1463 1465 1466 1469 1473 1475 1477
1416 1411 1417 1423 1429 1430 1436 1437 1437 1432 1435 1435 1436 1437 1439 1447 1443 1447 1446 1458 1462 1464 1466 1467 1473 1469 1464 1461 1461 1467 1464 1462 1466 1468 1481 1478 1473 1463 1459 1462 1463 1465 1468 1472 1475
1406 1401 1411 1410 1425 1430 1429 1426 1424 1423 1428 1432 1432 1433 1435 1442 1441 1445 1445 1453 1459 1465 1465 1466 1472 1471 1472 1466 1466 1470 1467 1464 1463 1463 1461 1462 1464 1458 1458 1461 1465 1467 1470 1471 1473
1401 1397 1402 1412 1413 1423 1416 1421 1421 1418 1423 1426 1429 1430 1434 1436 1435 1441 1439 1445 1449 1457 1463 1464 1471 1477 1484 1477 1479 1490 1472 1466 1463 1459 1460 1468 1461 1458 1459 1459 1464 1467 1470 1471 1474